EW1036 Weather Reports


Display with metric or nautical units.
time (UTC)temp
F
wind
direction
speed
MPH
gust
MPH
rain 1hr
in
rain 24hr
in
rain mn
in
humidity
%
barometer
mb
20210306052054 26 203 0.0 7.0 0.00 0.00 0.00 58 1011.5
20210306050254 26 244 0.0 5.0 0.00 0.00 0.00 58 1011.4
20210306044631 26 110 1.0 4.0 0.00 0.00 0.00 57 1011.3
20210306043049 27 183 0.0 5.0 0.00 0.00 0.00 56 1011.2
20210306041557 27 232 1.0 6.0 0.00 0.00 0.00 56 1011.1
20210306040101 27 189 0.0 8.0 0.00 0.00 0.00 58 1011.2
20210306034551 27 190 1.0 9.0 0.00 0.00 0.00 59 1011.2
20210306033052 28 49 2.0 7.0 0.00 0.00 0.00 61 1011.3
20210306031641 28 61 0.0 5.0 0.00 0.00 0.00 57 1011.2
20210306030215 29 143 1.0 5.0 0.00 0.00 0.00 52 1010.9
20210306024548 29 161 0.0 5.0 0.00 0.00 0.00 49 1010.6
20210306023106 29 115 2.0 9.0 0.00 0.00 0.00 48 1010.5
20210306021518 29 199 1.0 5.0 0.00 0.00 0.00 47 1010.4
20210306020210 29 200 2.0 18.0 0.00 0.00 0.00 46 1010.2
20210306014758 29 148 1.0 7.0 0.00 0.00 0.00 45 1009.9
20210306013144 29 28 1.0 5.0 0.00 0.00 0.00 43 1009.9
20210306011632 29 214 1.0 3.0 0.00 0.00 0.00 42 1009.9
20210306010055 28 134 0.0 3.0 0.00 0.00 0.00 42 1009.8
20210306004602 28 148 0.0 3.0 0.00 0.00 0.00 41 1009.7
20210306003329 28 184 0.0 6.0 0.00 0.00 0.00 40 1009.6
20210306001611 28 180 0.0 6.0 0.00 0.00 0.00 38 1009.6
20210306000125 28 145 0.0 3.0 0.00 0.00 0.00 39 1009.6
20210305234550 29 182 0.0 4.0 0.00 0.00 0.00 36 1009.3
20210305233033 29 239 1.0 5.0 0.00 0.00 0.00 36 1008.8
20210305231526 29 16 0.0 3.0 0.00 0.00 0.00 34 1008.6
20210305230024 30 183 2.0 4.0 0.00 0.00 0.00 34 1008.2
20210305224625 30 259 0.0 6.0 0.00 0.00 0.00 33 1007.8
20210305223139 31 146 0.0 10.0 0.00 0.00 0.00 31 1007.5
20210305221611 31 175 1.0 13.0 0.00 0.00 0.00 32 1007.2
20210305220121 32 213 1.0 6.0 0.00 0.00 0.00 29 1006.9
20210305214634 32 137 3.0 13.0 0.00 0.00 0.00 29 1006.7
20210305213128 32 212 4.0 9.0 0.00 0.00 0.00 29 1006.6
20210305211635 33 207 1.0 14.0 0.00 0.00 0.00 31 1006.4
20210305210045 33 98 3.0 8.0 0.00 0.00 0.00 29 1006.4
20210305204557 33 182 3.0 9.0 0.00 0.00 0.00 28 1006.4
20210305203105 33 172 2.0 9.0 0.00 0.00 0.00 32 1006.4
20210305201540 33 255 2.0 6.0 0.00 0.00 0.00 29 1006.4
20210305200355 33 308 2.0 12.0 0.00 0.00 0.00 30 1006.4
20210305194523 33 206 2.0 10.0 0.00 0.00 0.00 27 1006.7
20210305193123 33 174 2.0 7.0 0.00 0.00 0.00 26 1006.5
20210305191628 32 126 3.0 11.0 0.00 0.00 0.00 26 1006.8
20210305190242 32 193 3.0 12.0 0.00 0.00 0.00 25 1006.8
20210305184642 32 160 1.0 11.0 0.00 0.00 0.00 29 1006.9
20210305183329 32 223 1.0 6.0 0.00 0.00 0.00 27 1007.1
20210305181720 31 52 1.0 14.0 0.00 0.00 0.00 30 1007.1
20210305180158 31 279 2.0 9.0 0.00 0.00 0.00 31 1007.5
20210305175040 31 261 2.0 10.0 0.00 0.00 0.00 28 1007.6
20210305173116 31 277 3.0 8.0 0.00 0.00 0.00 27 1008.0
20210305171652 30 215 1.0 11.0 0.00 0.00 0.00 31 1008.1
20210305170215 29 153 1.0 8.0 0.00 0.00 0.00 31 1008.4
20210305164612 29 180 0.0 12.0 0.00 0.00 0.00 32 1008.4
20210305163857 29 127 2.0 9.0 0.00 0.00 0.00 33 1008.5
20210305161621 29 130 3.0 10.0 0.00 0.00 0.00 31 1008.6
20210305160103 28 293 0.0 5.0 0.00 0.00 0.00 37 1008.5
20210305154542 27 229 1.0 8.0 0.00 0.00 0.00 34 1008.8
20210305153157 26 130 2.0 9.0 0.00 0.00 0.00 35 1008.7
20210305151545 26 97 1.0 6.0 0.00 0.00 0.00 39 1009.0
20210305150138 25 187 1.0 8.0 0.00 0.00 0.00 39 1009.2
20210305144550 24 59 2.0 9.0 0.00 0.00 0.00 38 1009.1
20210305143112 23 112 3.0 9.0 0.00 0.00 0.00 39 1009.3
20210305141601 23 101 1.0 5.0 0.00 0.00 0.00 40 1009.1
20210305140256 23 229 1.0 9.0 0.00 0.00 0.00 39 1009.4
20210305134537 22 168 1.0 10.0 0.00 0.00 0.00 40 1009.3
20210305133020 22 105 3.0 8.0 0.00 0.00 0.00 40 1009.2
20210305131639 22 310 1.0 8.0 0.00 0.00 0.00 41 1009.3
20210305130351 21 187 2.0 6.0 0.00 0.00 0.00 44 1009.2
20210305124642 21 134 0.0 7.0 0.00 0.00 0.00 44 1009.2
20210305123432 20 197 0.0 4.0 0.00 0.00 0.00 47 1009.0
20210305121652 20 169 0.0 2.0 0.00 0.00 0.00 50 1008.8
20210305120129 19 224 0.0 4.0 0.00 0.00 0.00 51 1008.7
20210305114633 19 186 0.0 3.0 0.00 0.00 0.00 50 1008.6
20210305113206 19 207 1.0 5.0 0.00 0.00 0.00 50 1008.6
20210305111627 19 175 0.0 5.0 0.00 0.00 0.00 50 1008.6
20210305110136 19 115 0.0 4.0 0.00 0.00 0.00 51 1008.6
20210305104730 19 170 0.0 5.0 0.00 0.00 0.00 50 1008.5
20210305103209 19 189 0.0 4.0 0.00 0.00 0.00 50 1008.4
20210305101601 20 158 0.0 2.0 0.00 0.00 0.00 49 1008.4
20210305100212 20 194 0.0 7.0 0.00 0.00 0.00 50 1008.2
20210305094538 20 137 0.0 3.0 0.00 0.00 0.00 47 1008.1
20210305093123 21 123 2.0 9.0 0.00 0.00 0.00 45 1008.2
20210305091605 21 190 0.0 8.0 0.00 0.00 0.00 45 1007.9
20210305090046 21 73 1.0 10.0 0.00 0.00 0.00 44 1008.1
20210305084540 21 83 1.0 14.0 0.00 0.00 0.00 44 1008.0
20210305083135 21 128 2.0 7.0 0.00 0.00 0.00 43 1007.7
20210305081545 21 127 2.0 12.0 0.00 0.00 0.00 44 1007.7
20210305080102 22 115 1.0 9.0 0.00 0.00 0.00 44 1007.6
20210305074638 22 81 2.0 20.0 0.00 0.00 0.00 46 1007.5
20210305073024 22 101 3.0 13.0 0.00 0.00 0.00 47 1007.3
20210305071526 22 252 3.0 8.0 0.00 0.00 0.00 50 1007.5
20210305070127 22 65 1.0 9.0 0.00 0.00 0.00 49 1007.2
20210305064553 22 279 3.0 12.0 0.00 0.00 0.00 49 1007.1
20210305063131 22 168 2.0 12.0 0.00 0.00 0.00 49 1007.3
20210305061602 22 165 3.0 9.0 0.00 0.00 0.00 50 1007.5
20210305060031 23 184 3.0 9.0 0.00 0.00 0.00 49 1007.7
20210305054524 23 150 1.0 11.0 0.00 0.00 0.00 49 1007.9
20210305053034 23 72 3.0 12.0 0.00 0.00 0.00 48 1007.9